Location: Bu�n Treun
(12.1333°N, 108.3167°E)
Time: 00:25:50
(UTC+00:00)

Cosmos 1844 Rocket - Pass Details

Date: 13 July 2020
Orbit: 826 x 843 km, 71.0° (Epoch: 03 August)

Event Time Altitude Azimuth Distance (km) Brightness Sun altitude
Rises 12:11:46 0° 9° (N) 3,353 6.0 -13.3°
Reaches altitude 10° 12:14:59 10° 28° (NNE) 2,422 5.1 -14.0°
Maximum altitude 12:18:40 18° 70° (ENE) 1,922 4.2 -14.8°
Enters shadow 12:19:46 17° 85° (E) 1,972 4.1 -15.0°
